SURFSAT (43614 NORAD) Tracking and Keplerian Element Data

This shows tracking and keplerian element data for the satellite.

Feedback or suggestion? Click here.




ElementValue
Catalog43614
NameSURFSAT
Epoch Orbit891
Epoch Day316.62074313
Epoch Year2018
RAAN273.5104
Inclination93.0314
Eccentricity0.0019952
Argument of Perigee66.7171
Mean Anonmoly293.6166
Mean Motion15.3648439
Decay Rate3.322E-05
L11 43614U 18070B 18316.62074313 .00003322 00000-0 93042-4 0 9991
L22 43614 93.0314 273.5104 0019952 66.7171 293.6166 15.36484390 8910

Live tracking and technical data element details for SURFSAT (NORAD 43614). SURFSAT can be tracked NOW for your location showing map with azimuth and elevation plus other details from your city location.

Track the satellite on the map from your city or location and see movement details for azimuth, elevation, latitude, longitude, range, height, and movement on the map or in text.







IsCatalogInMostPopularTable: catalog: 43614, numindb: 18
Update: records affected: 1



GetName: 43614 SURFSAT

Hit Count: updated at: Tue, 13 Nov 2018 07:44:35 GMT